Flag for U.S.A. Weather past 2 weeks in Mansfield, Texas, U.S.A.

Now
79 °F

Clear.


Feels Like: 81 °F
Forecast: 73 / 96 °F
Wind: No wind

Location: Burleson-Rendon

Current Time: Aug 1, 2015 at 3:19:19 AM

Latest Report: Aug 1, 2015 at 2:55 AM


Visibility: 10 mi

Pressure: 30.04 "Hg

Humidity: 71%

Dew point: 69 °F

Location of MansfieldLocation

Historic Weather in Mansfield — Graph

°F

Mansfield temperature yesterday

Maximum temperature yesterday: 99 °F (at 2:54 PM)
Minimum temperature yesterday: 77 °F (at 5:15 AM)
Average temperature yesterday: 86 °F

Past Weeks' High & Low Weather Summary

 TemperatureHumidityPressure
High102 °F (Jul 30, 2:52 PM)89% (Jul 19, 6:53 AM)30.12 "Hg (Jul 19, 6:53 AM)
Low71 °F (Jul 26, 5:35 AM)24% (Jul 25, 2:48 PM)29.82 "Hg (Jul 21, 6:50 PM)
Average84 °F59%29.96 "Hg
* Reported Jul 17 2:15 AM — Aug 1 2:15 AM, Mansfield, Weather by CustomWeather, © 2015

Note: Actual official high and low records may vary slightly from our data, if they occured in-between our weather recording intervals... More about our weather records

Advertising

Mansfield weather history for previous 24 hours

 ConditionsComfort  
Time TempWeatherWind HumidityBarometerVisibility
2:15 AM
Sat, Aug 1
77 °FClear.No wind79%30.04 "Hg10 mi
1:55 AM78 °FClear.3 mph75%30.04 "Hg10 mi
1:35 AM78 °FClear.No wind75%30.04 "Hg10 mi
1:15 AM81 °FClear.5 mph70%30.06 "Hg10 mi
12:55 AM81 °FClear.7 mph64%30.06 "Hg10 mi
12:15 AM82 °FClear.5 mph66%30.05 "Hg10 mi
11:55 PM
Fri, Jul 31
82 °FClear.5 mph63%30.05 "Hg10 mi
11:15 PM82 °FClear.No wind66%30.04 "Hg10 mi
10:55 PM82 °FClear.No wind65%30.04 "Hg10 mi
10:15 PM84 °FDense fog.No wind57%30.04 "Hg1 mi
9:55 PM84 °FClear.No wind59%30.04 "Hg10 mi
9:15 PM86 °FSunny.No wind51%30.05 "Hg3 mi
8:55 PM86 °FScattered clouds.No wind52%30.05 "Hg7 mi
8:35 PM89 °FScattered clouds.No wind47%30.05 "Hg10 mi
8:15 PM91 °FScattered clouds.No wind44%30.04 "Hg10 mi
6:55 PM93 °FSunny.12 mph39%30.01 "Hg7 mi
5:48 PM97 °FScattered clouds.17 mph37%29.99 "Hg7 mi
4:47 PM99 °FPartly sunny.15 mph35%30.00 "Hg7 mi
3:49 PM97 °FBroken clouds.12 mph39%30.02 "Hg7 mi
2:54 PM99 °FPartly sunny.12 mph37%30.05 "Hg7 mi
1:48 PM97 °FScattered clouds.5 mph42%30.07 "Hg7 mi
12:50 PM95 °FSunny.3 mph47%30.08 "Hg7 mi
11:52 AM93 °FSunny.6 mph47%30.09 "Hg7 mi
10:55 AM90 °FSunny.5 mph55%30.10 "Hg7 mi
9:52 AM88 °FSunny.5 mph59%30.11 "Hg7 mi
8:51 AM84 °FSunny.7 mph66%30.10 "Hg7 mi
7:50 AM81 °FSunny.7 mph74%30.09 "Hg7 mi
6:51 AM77 °FClear.No wind79%30.08 "Hg5 mi
6:35 AM77 °FDense fog.No wind80%30.08 "Hg1 mi
6:15 AM77 °FDense fog.No wind80%30.08 "Hg1 mi
5:55 AM77 °FPassing clouds.No wind82%30.08 "Hg4 mi
5:15 AM77 °FClear.No wind80%30.07 "Hg7 mi
4:55 AM79 °FClear.No wind74%30.07 "Hg10 mi
4:15 AM81 °FClear.No wind70%30.07 "Hg10 mi
3:55 AM80 °FClear.No wind71%30.08 "Hg10 mi
3:35 AM81 °FClear.No wind69%30.08 "Hg10 mi
3:15 AM82 °FClear.3 mph67%30.08 "Hg10 mi
Weather by CustomWeather, © 2015

See weather overviewHow to use our weather pages